SKYSAT-C8

Last updated on Sun Apr 12 2026 00:02:35 GMT+0000 (Coordinated Universal Time)

1 42990U 17068D 26101.37118223 .00009148 00000+0 26609-3 0 9990 2 42990 97.4411 237.2216 0001018 99.3280 260.8078 15.35668597472050
UTC large
Height (km)
Speed (km/s)
/
Latitude / Longitude
Inclination (degrees)
Orbital Period (minutes)
Azimuth
Elevation
Range (km)
Doppler Factor

Next 0 passes for location: London (51.5072 / 0.1276)

Sorry there are no passes over London.
SKYSAT-C8